FENGYUN 1C DEB, 31325

Orbit data source: Space-Track

FENGYUN 1C DEB, 31325 is space debris in SSO originally from a launch on Mon, 10 May 1999 UTC launched from the Taiyaun Space Center, China (TSC). Fengyun 1C debris stems from the Chinese weather satellite Fengyun-1C, which was intentionally destroyed by a Chinese anti-satellite missile in 2007. This event dramatically increased the amount of space debris, with thousands of trackable fragments posing hazards to satellites and human spaceflight. The Fengyun 1C debris cloud has become a focal point in discussions about space sustainability and the need for international regulations to prevent the creation of new debris.

Loading next visibility...
Identifier
31325, 1999-025BQD
Orbit
SSO
Country
Flag of CNCN / PRC
Related business
Manufacturer
Unknown
Mission
Spacecraft
Bus & Motor
Unknown
Mass
Unknown
Launch date (UTC)
1999-05-10 (27 years ago)
Launch vehicle
Unknown
Launch site
Taiyaun Space Center, China (TSC)
Object type
Payload
Rocket body
Debris
Shape & HBR
Unknown shape, 0.1 m
Radar Cross Section
Small (<0.1 m²)

Expand to show TLE details & history
Last TLE update: 2 days ago

TLE from 2 days ago
0 FENGYUN 1C DEB
1 31325U 99025BQD 26072.06352292  .00003617  00000-0  17591-2 0  9997
2 31325  98.9866 172.2354 0067727 323.6735  35.9852 14.17668682610574
Epoch: 2026-03-13T01:31Z
TLE epoch observation values (Epoch: 2026-03-13T01:31:28.380Z)
Latitude
0.00003°
Longitude
-21.33729°
Altitude
796.738 km
Speed
7.476 km/s
True Right ascension
11h 28m 56s
True Declination
0° 00' 00"
Sunlit
Object was in full shadow at epoch
Visualization orbit readout
Latitude
Unknown
Longitude
Unknown
Altitude
Unknown
Speed
Unknown
Apparent Right ascension
Unknown
Apparent Declination
Unknown
Sunlit
N/A
Visualization observer readout
Local Sidereal Time
14:49:27
Azimuth
Unknown
Elevation
Unknown
Doppler factor
Unknown
Orbital elements
Apogee altitude
879.244 km
Perigee altitude
781.601 km
Semi-major axis
7,208.56 km
Eccentricity
0.00677
Inclination
98.9866°
RAAN
172.2354°
Arg. of periapsis
323.6735°
True anomaly
36.44435°
Mean anomaly
35.9852°
Eccentric anomaly
36.21446°
Mean motion
3.54626 °/min
Orbital period
101.52 mins
BSTAR
0.0017591
Loading maneuver chart data...
Computing Atmospheric mass density...

Documentation

Showing up to 5 results
|